Shelton, WA
on Tuesday, January 8, 2013

Tuesday
Previous Day Next Day
Daily Summary
 ActualAverage (KOLM)Record (KOLM)
Temperature
Mean Temperature °F 39°F  
Max Temperature 51°F 45°F 55°F (1953)
Min Temperature 39°F 34°F 9°F (1974)
Degree Days
Heating Degree Days 20 26  
Month to date heating degree days 208  
Since 1 July heating degree days 2478  
Cooling Degree Days 0 0  
Month to date cooling degree days 0  
Year to date cooling degree days 0  
Moisture
Dew Point 44°F   
Average Humidity 95    
Maximum Humidity 100    
Minimum Humidity 87    
Precipitation
Precipitation 0.83 in 0.26 in 1.20 in (1990)
Month to date precipitation 2.04  
Year to date precipitation 2.04  
Wind
Wind Speed 8 mph   
Max Wind Speed 24 mph   
Max Gust Speed 34 mph   
Visibility 10 miles   
Events Rain   

Key: T is trace of precipitation, MM is missing value
Source: NWS Daily Summary
Time(PST)TemperatureDew PointHumidity Pressure Visibility Wind DirectionWind SpeedGust SpeedPrecipitationEvents Conditions
12:14 AM 42.8°F 41.0°F 93% 30.14 in 10.0 miles SSW 5.8 mph - N/A   Overcast
12:53 AM 43.0°F 41.0°F 93% 30.16 in 10.0 miles SW 4.6 mph - N/A   Overcast
1:53 AM 43.0°F 42.1°F 97% 30.15 in 10.0 miles SW 3.5 mph - N/A   Overcast
2:26 AM 42.8°F 42.8°F 100% 30.14 in 10.0 miles WSW 3.5 mph - N/A   Overcast
2:37 AM 42.8°F 42.8°F 100% 30.14 in 10.0 miles SW 4.6 mph - N/A   Overcast
2:53 AM 43.0°F 42.1°F 97% 30.15 in 10.0 miles SSW 4.6 mph - N/A   Overcast
3:08 AM 42.8°F 42.8°F 100% 30.13 in 10.0 miles SW 4.6 mph - 0.00 in Rain Light Rain
3:22 AM 42.8°F 42.8°F 100% 30.12 in 10.0 miles SSW 3.5 mph - 0.01 in Rain Light Rain
3:31 AM 42.8°F 42.8°F 100% 30.12 in 10.0 miles South 3.5 mph - 0.01 in Rain Light Rain
3:53 AM 42.1°F 42.1°F 100% 30.14 in 10.0 miles WSW 3.5 mph - 0.01 in Rain Light Rain
4:02 AM 42.8°F 42.8°F 100% 30.12 in 10.0 miles Calm Calm - 0.00 in Rain Light Rain
4:53 AM 42.1°F 41.0°F 96% 30.11 in 10.0 miles Calm Calm - 0.02 in Rain Light Rain
5:53 AM 41.0°F 41.0°F 100% 30.07 in 10.0 miles NNE 4.6 mph - 0.04 in Rain Light Rain
6:34 AM 41.0°F 39.2°F 93% 30.04 in 10.0 miles NE 3.5 mph - 0.02 in Rain Light Rain
6:53 AM 41.0°F 39.9°F 96% 30.04 in 10.0 miles North 4.6 mph - 0.02 in Rain Light Rain
7:53 AM 41.0°F 39.9°F 96% 30.02 in 10.0 miles NNE 5.8 mph - 0.07 in Rain Light Rain
8:02 AM 41.0°F 39.2°F 93% 30.00 in 10.0 miles NNE 6.9 mph - 0.02 in Rain Light Rain
8:09 AM 41.0°F 39.2°F 93% 30.00 in 10.0 miles North 5.8 mph - 0.02 in Rain Light Rain
8:43 AM 39.2°F 39.2°F 100% 30.01 in 10.0 miles North 6.9 mph - 0.08 in Rain Light Rain
8:53 AM 39.9°F 39.0°F 97% 30.02 in 10.0 miles North 4.6 mph - 0.08 in Rain Light Rain
9:06 AM 39.2°F 39.2°F 100% 30.00 in 10.0 miles North 6.9 mph - 0.01 in Rain Light Rain
9:20 AM 39.2°F 37.4°F 93% 30.00 in 10.0 miles North 9.2 mph - N/A Rain Light Rain
9:53 AM 39.0°F 37.9°F 96% 30.00 in 10.0 miles North 5.8 mph - 0.03 in Rain Light Rain
10:24 AM 39.2°F 37.4°F 93% 29.98 in 10.0 miles Calm Calm - 0.02 in Rain Light Rain
10:53 AM 39.0°F 37.9°F 96% 29.96 in 10.0 miles Calm Calm - 0.05 in Rain Light Rain
11:53 AM 39.9°F 39.0°F 97% 29.92 in 8.0 miles Calm Calm - 0.05 in Rain Light Rain
12:09 PM 39.2°F 39.2°F 100% 29.91 in 10.0 miles WSW 4.6 mph - 0.00 in Rain Light Rain
12:53 PM 41.0°F 39.9°F 96% 29.91 in 10.0 miles WSW 5.8 mph - 0.05 in Rain Light Rain
1:33 PM 44.6°F 44.6°F 100% 29.86 in 10.0 miles WSW 13.8 mph - 0.01 in Rain Light Rain
1:53 PM 45.0°F 43.0°F 93% 29.87 in 10.0 miles WSW 11.5 mph - 0.04 in Rain Rain
2:53 PM 50.0°F 48.9°F 96% 29.86 in 10.0 miles SSW 21.9 mph 26.5 mph 0.05 in Rain Light Rain
3:00 PM 50.0°F 48.2°F 94% 29.84 in 10.0 miles SSW 23.0 mph 33.4 mph 0.01 in Rain Light Rain
3:53 PM 51.1°F 48.9°F 92% 29.83 in 10.0 miles SSW 19.6 mph 34.5 mph 0.03 in   Overcast
4:13 PM 51.8°F 48.2°F 88% 29.81 in 10.0 miles SSW 19.6 mph 27.6 mph N/A   Overcast
4:23 PM 50.0°F 48.2°F 94% 29.82 in 10.0 miles SSW 23.0 mph 32.2 mph 0.00 in Rain Light Rain
4:53 PM 50.0°F 48.0°F 93% 29.82 in 10.0 miles SSW 24.2 mph 33.4 mph 0.02 in   Overcast
5:53 PM 51.1°F 48.9°F 92% 29.81 in 10.0 miles SSW 19.6 mph 29.9 mph 0.01 in Rain Light Rain
6:49 PM 50.0°F 48.2°F 94% 29.78 in 10.0 miles SSW 17.3 mph 31.1 mph N/A Rain Light Rain
6:53 PM 50.0°F 48.9°F 96% 29.79 in 10.0 miles South 13.8 mph 31.1 mph 0.02 in Rain Light Rain
7:03 PM 50.0°F 48.2°F 94% 29.78 in 10.0 miles South 17.3 mph 27.6 mph 0.00 in Rain Light Rain
7:46 PM 50.0°F 48.2°F 94% 29.77 in 10.0 miles South 11.5 mph 21.9 mph 0.03 in Rain Light Rain
7:53 PM 50.0°F 48.9°F 96% 29.78 in 10.0 miles South 11.5 mph 18.4 mph 0.03 in Rain Light Rain
8:04 PM 50.0°F 48.2°F 94% 29.77 in 10.0 miles South 13.8 mph 23.0 mph 0.01 in Rain Light Rain
8:28 PM 50.0°F 48.2°F 94% 29.76 in 10.0 miles South 15.0 mph 21.9 mph 0.03 in Rain Light Rain
8:53 PM 50.0°F 48.2°F 94% 29.76 in 10.0 miles South 12.7 mph 21.9 mph N/A Rain Rain
9:53 PM 50.0°F 48.0°F 93% 29.75 in 10.0 miles South 19.6 mph 25.3 mph 0.09 in Rain Light Rain
10:16 PM 50.0°F 46.4°F 87% 29.74 in 10.0 miles SSW 19.6 mph 31.1 mph 0.04 in Rain Light Rain
10:33 PM 50.0°F 46.4°F 87% 29.73 in 10.0 miles SSW 20.7 mph 29.9 mph N/A Rain Light Rain
10:53 PM 50.0°F 46.9°F 89% 29.74 in 10.0 miles SSW 18.4 mph 28.8 mph 0.06 in Rain Light Rain
11:53 PM 48.9°F 46.9°F 93% 29.74 in 10.0 miles SSW 17.3 mph 31.1 mph 0.06 in Rain Light Rain
Moon Phase
Jan. 08 Jan. 11 Jan. 18 Jan. 26 Feb. 03
Sunrise:07:58 AM (PST) Moon Rise:04:36 AM (PST)1/8
Sunset:04:41 PM (PST) Moon Set:01:49 PM (PST)1/8

Copyright © 2014 The Weather Underground, Inc.